sat.trackr.live / text

‹ back to catalog

STARLINK-3089

NORAD 49166 · 2021-082AN

PAYLOAD ACTIVE UNKNOWN

§ Identity

Operator
Country
US
Launch date
2021-09-14
Launch site
AFWTR
Launch vehicle
Mass (kg)
RCS (m²)

Purposes: comms

External: N2YO · Heavens-Above · Gunter

§ Orbital elements

Epoch: 2026-09-09T22:23:50.752320Z

Period
96.16 min
Inclination
70.0002°
Eccentricity
0.0003044
Mean motion
14.97519813 rev/d
Perigee alt
572.4 km
Apogee alt
576.7 km
Semi-major
6,952.7 km
B*
9.5800e-5
RAAN
171.2845°
Arg perigee
267.9738°
Mean anomaly
92.1071°
Rev number
27,523

§ Raw data

STARLINK-30891 49166U 21082AN  26252.93322630  .00001027  00000+0  95800-4 0  99992 49166  70.0002 171.2845 0003044 267.9738  92.1071 14.97519813275235

JSON: /api/v1/satellites/49166 · /tle

For live sub-satellite position, see the globe view (requires WebGL).

§ Visibility from observer

Set your observer location to see the next 7 days of passes ≥ 10°. The values pass through the URL so the page stays shareable.

No JS? Fill the form by hand. The geolocation button needs JavaScript.